JTC232 KOPF-TGPY

Flight info

Callsign JTC232
Flight time 2h 43m
Altitude 41000
Route HUSIL3 CAMIX DCT BITAC Y290 HAGIT Y421 MEEGL L466 GEECE
Aircraft C750/M-SBDE3FGHRWXY/S

Departure

Time 2026-05-06 23:59
Airport Miami-Opa Locka Executive Airport (KOPF)

Arrival

Time 2026-05-07 02:42
Airport Maurice Bishop International Airport (TGPY)
Time Latitude Longitude Altitude Speed Heading
2026-05-06 23:49 25.91103 -80.27101 12 ft 0 kts 182°
2026-05-06 23:53 25.91101 -80.27101 12 ft 2 kts 182°
2026-05-06 23:54 25.91075 -80.27130 12 ft 10 kts 259°
2026-05-06 23:54 25.91072 -80.27216 12 ft 11 kts 268°
2026-05-06 23:54 25.91087 -80.27291 12 ft 11 kts 295°
2026-05-06 23:54 25.91144 -80.27348 12 ft 11 kts 294°
2026-05-06 23:55 25.91188 -80.27411 12 ft 11 kts 315°
2026-05-06 23:55 25.91195 -80.27483 12 ft 10 kts 266°
2026-05-06 23:55 25.91190 -80.27584 12 ft 14 kts 267°
2026-05-06 23:55 25.91185 -80.27699 12 ft 14 kts 266°
2026-05-06 23:56 25.91179 -80.27824 12 ft 18 kts 266°
2026-05-06 23:56 25.91171 -80.27972 12 ft 20 kts 267°
2026-05-06 23:56 25.91164 -80.28119 12 ft 18 kts 267°
2026-05-06 23:56 25.91158 -80.28253 12 ft 16 kts 267°
2026-05-06 23:57 25.91152 -80.28374 12 ft 15 kts 267°
2026-05-06 23:57 25.91146 -80.28490 12 ft 16 kts 267°
2026-05-06 23:57 25.91139 -80.28630 13 ft 20 kts 266°
2026-05-06 23:57 25.91132 -80.28789 13 ft 16 kts 269°
2026-05-06 23:58 25.91202 -80.28841 14 ft 14 kts 11°
2026-05-06 23:58 25.91269 -80.28805 15 ft 10 kts 88°
2026-05-06 23:58 25.91280 -80.28583 13 ft 72 kts 88°
2026-05-06 23:58 25.91322 -80.27712 109 ft 135 kts 87°
2026-05-06 23:59 25.91365 -80.26652 749 ft 145 kts 88°
2026-05-06 23:59 25.91471 -80.25434 1333 ft 173 kts 85°
2026-05-06 23:59 25.91618 -80.24009 2102 ft 198 kts 85°
2026-05-06 23:59 25.91764 -80.22400 2867 ft 222 kts 86°
2026-05-07 00:00 25.91929 -80.20605 3309 ft 246 kts 85°
2026-05-07 00:00 25.91941 -80.18614 3528 ft 271 kts 100°
2026-05-07 00:00 25.91414 -80.16634 4545 ft 267 kts 108°
2026-05-07 00:00 25.90809 -80.14656 5179 ft 280 kts 107°
2026-05-07 00:01 25.90204 -80.12598 6077 ft 280 kts 107°
2026-05-07 00:01 25.89596 -80.10546 6927 ft 281 kts 107°
2026-05-07 00:01 25.88974 -80.08479 7804 ft 283 kts 107°
2026-05-07 00:01 25.88347 -80.06395 8734 ft 285 kts 106°
2026-05-07 00:02 25.87720 -80.04298 9622 ft 288 kts 106°
2026-05-07 00:02 25.87082 -80.02171 10314 ft 296 kts 105°
2026-05-07 00:02 25.86406 -79.99906 10450 ft 322 kts 105°
2026-05-07 00:02 25.85669 -79.97443 10476 ft 349 kts 106°
2026-05-07 00:03 25.84885 -79.94853 11038 ft 354 kts 106°
2026-05-07 00:03 25.84100 -79.92259 11711 ft 357 kts 105°
2026-05-07 00:03 25.83313 -79.89633 12320 ft 361 kts 105°
2026-05-07 00:03 25.82515 -79.86980 12957 ft 364 kts 105°
2026-05-07 00:04 25.81707 -79.84304 13572 ft 368 kts 105°
2026-05-07 00:04 25.80891 -79.81600 14145 ft 371 kts 105°
2026-05-07 00:04 25.80068 -79.78870 14649 ft 376 kts 105°
2026-05-07 00:04 25.79232 -79.76102 15133 ft 381 kts 105°
2026-05-07 00:05 25.78383 -79.73294 15632 ft 386 kts 105°
2026-05-07 00:05 25.77524 -79.70457 16141 ft 391 kts 105°
2026-05-07 00:05 25.76473 -79.67649 16560 ft 400 kts 116°
2026-05-07 00:05 25.75054 -79.64982 17123 ft 403 kts 118°
2026-05-07 00:06 25.73632 -79.62270 17654 ft 408 kts 118°
2026-05-07 00:06 25.72246 -79.59551 18191 ft 413 kts 117°
2026-05-07 00:06 25.70809 -79.56764 18695 ft 418 kts 118°
2026-05-07 00:06 25.69336 -79.53956 19197 ft 423 kts 118°
2026-05-07 00:07 25.67854 -79.51120 19696 ft 427 kts 118°
2026-05-07 00:07 25.66580 -79.48131 20147 ft 431 kts 110°
2026-05-07 00:07 25.65440 -79.45049 20706 ft 434 kts 110°
2026-05-07 00:07 25.64261 -79.41943 21215 ft 440 kts 111°
2026-05-07 00:08 25.63043 -79.38816 21734 ft 445 kts 110°
2026-05-07 00:08 25.61826 -79.35648 22234 ft 449 kts 110°
2026-05-07 00:08 25.60612 -79.32443 22749 ft 454 kts 110°
2026-05-07 00:08 25.59381 -79.29217 23260 ft 458 kts 110°
2026-05-07 00:09 25.58122 -79.25951 23749 ft 463 kts 110°
2026-05-07 00:09 25.56855 -79.22658 24205 ft 466 kts 110°
2026-05-07 00:09 25.55586 -79.19343 24680 ft 469 kts 110°
2026-05-07 00:09 25.54304 -79.15999 25145 ft 472 kts 110°
2026-05-07 00:10 25.53014 -79.12651 25691 ft 473 kts 110°
2026-05-07 00:10 25.51720 -79.09292 26145 ft 477 kts 111°
2026-05-07 00:10 25.50417 -79.05903 26608 ft 480 kts 111°
2026-05-07 00:10 25.49104 -79.02497 27081 ft 483 kts 111°
2026-05-07 00:11 25.47781 -78.99071 27533 ft 486 kts 111°
2026-05-07 00:11 25.46448 -78.95618 27988 ft 489 kts 111°
2026-05-07 00:11 25.45105 -78.92141 28439 ft 492 kts 111°
2026-05-07 00:11 25.43754 -78.88648 28875 ft 496 kts 111°
2026-05-07 00:12 25.42394 -78.85134 29299 ft 499 kts 111°
2026-05-07 00:12 25.41023 -78.81594 29717 ft 502 kts 111°
2026-05-07 00:12 25.39640 -78.78028 30123 ft 505 kts 111°
2026-05-07 00:12 25.38250 -78.74447 30468 ft 508 kts 111°
2026-05-07 00:13 25.36849 -78.70839 30796 ft 511 kts 111°
2026-05-07 00:13 25.35441 -78.67219 31161 ft 513 kts 111°
2026-05-07 00:13 25.34035 -78.63606 31689 ft 511 kts 111°
2026-05-07 00:13 25.32629 -78.59995 32152 ft 511 kts 111°
2026-05-07 00:14 25.31225 -78.56390 32606 ft 511 kts 111°
2026-05-07 00:14 25.29836 -78.52828 33061 ft 511 kts 111°
2026-05-07 00:14 25.28431 -78.49231 33533 ft 510 kts 111°
2026-05-07 00:14 25.27025 -78.45632 34013 ft 510 kts 111°
2026-05-07 00:15 25.25625 -78.42035 34431 ft 510 kts 111°
2026-05-07 00:15 25.24240 -78.38437 34842 ft 509 kts 111°
2026-05-07 00:15 25.22853 -78.34837 35261 ft 509 kts 111°
2026-05-07 00:15 25.21456 -78.31242 35682 ft 509 kts 111°
2026-05-07 00:16 25.20060 -78.27655 36105 ft 509 kts 111°
2026-05-07 00:16 25.18669 -78.24068 36542 ft 508 kts 111°
2026-05-07 00:16 25.17277 -78.20479 36994 ft 508 kts 111°
2026-05-07 00:16 25.15878 -78.16904 37425 ft 508 kts 112°
2026-05-07 00:17 25.14186 -78.13477 37895 ft 509 kts 121°
2026-05-07 00:17 25.12145 -78.10286 38380 ft 509 kts 126°
2026-05-07 00:17 25.09992 -78.07187 38827 ft 509 kts 126°
2026-05-07 00:17 25.07907 -78.04029 39223 ft 508 kts 123°
2026-05-07 00:18 25.05913 -78.00817 39649 ft 507 kts 123°
2026-05-07 00:18 25.03893 -77.97642 40073 ft 506 kts 124°
2026-05-07 00:18 25.01812 -77.94520 40498 ft 505 kts 125°
2026-05-07 00:18 24.99745 -77.91395 40874 ft 503 kts 124°
2026-05-07 00:19 24.97722 -77.88241 41071 ft 507 kts 124°
2026-05-07 00:19 24.95692 -77.85075 41063 ft 516 kts 124°
2026-05-07 00:19 24.91413 -77.78560 41082 ft 532 kts 125°
2026-05-07 00:20 24.87048 -77.71838 41088 ft 545 kts 124°
2026-05-07 00:20 24.82587 -77.65028 41086 ft 550 kts 125°
2026-05-07 00:21 24.78123 -77.58195 41081 ft 549 kts 124°
2026-05-07 00:21 24.73953 -77.51158 41071 ft 547 kts 115°
2026-05-07 00:22 24.70640 -77.43605 41082 ft 548 kts 113°
2026-05-07 00:22 24.67158 -77.36147 41083 ft 548 kts 115°
2026-05-07 00:23 24.63759 -77.28646 41085 ft 548 kts 114°
2026-05-07 00:23 24.60338 -77.21213 41079 ft 549 kts 115°
2026-05-07 00:24 24.56902 -77.13730 41076 ft 548 kts 114°
2026-05-07 00:24 24.53462 -77.06243 41076 ft 548 kts 115°
2026-05-07 00:25 24.50012 -76.98768 41081 ft 548 kts 114°
2026-05-07 00:25 24.46570 -76.91297 41081 ft 548 kts 115°
2026-05-07 00:26 24.43114 -76.83832 41069 ft 549 kts 114°
2026-05-07 00:26 24.39668 -76.76378 41067 ft 547 kts 114°
2026-05-07 00:27 24.36212 -76.68936 41068 ft 547 kts 114°
2026-05-07 00:27 24.32760 -76.61496 41068 ft 547 kts 114°
2026-05-07 00:28 24.29299 -76.54061 41070 ft 547 kts 114°
2026-05-07 00:28 24.25837 -76.46625 41081 ft 549 kts 114°
2026-05-07 00:29 24.22385 -76.39235 41079 ft 548 kts 114°
2026-05-07 00:30 24.15426 -76.24358 41078 ft 548 kts 114°
2026-05-07 00:30 24.11945 -76.16933 41078 ft 548 kts 114°
2026-05-07 00:31 24.08457 -76.09505 41083 ft 549 kts 114°
2026-05-07 00:31 24.04961 -76.02075 41083 ft 549 kts 114°
2026-05-07 00:32 24.01464 -75.94651 41085 ft 549 kts 114°
2026-05-07 00:32 23.98552 -75.88479 41088 ft 549 kts 114°
2026-05-07 00:33 23.95048 -75.81063 41084 ft 549 kts 114°
2026-05-07 00:33 23.90974 -75.72453 41084 ft 548 kts 114°
2026-05-07 00:34 23.88035 -75.66254 41086 ft 548 kts 114°
2026-05-07 00:34 23.84526 -75.58861 41089 ft 548 kts 114°
2026-05-07 00:35 23.81012 -75.51470 41083 ft 548 kts 114°
2026-05-07 00:35 23.77497 -75.44088 41084 ft 548 kts 114°
2026-05-07 00:36 23.74002 -75.36758 41085 ft 548 kts 114°
2026-05-07 00:36 23.70479 -75.29383 41085 ft 548 kts 114°
2026-05-07 00:37 23.66951 -75.22007 41081 ft 548 kts 114°
2026-05-07 00:37 23.63428 -75.14653 41077 ft 547 kts 114°
2026-05-07 00:38 23.59899 -75.07299 41073 ft 547 kts 114°
2026-05-07 00:38 23.56367 -74.99948 41083 ft 547 kts 114°
2026-05-07 00:39 23.52835 -74.92609 41083 ft 547 kts 114°
2026-05-07 00:39 23.49299 -74.85272 41081 ft 547 kts 114°
2026-05-07 00:40 23.45759 -74.77940 41084 ft 547 kts 114°
2026-05-07 00:40 23.42217 -74.70611 41085 ft 546 kts 114°
2026-05-07 00:41 23.38672 -74.63289 41089 ft 547 kts 114°
2026-05-07 00:41 23.35118 -74.55963 41084 ft 547 kts 114°
2026-05-07 00:42 23.31589 -74.48692 41084 ft 547 kts 114°
2026-05-07 00:42 23.28033 -74.41382 41084 ft 547 kts 114°
2026-05-07 00:43 23.24483 -74.34091 41084 ft 545 kts 114°
2026-05-07 00:43 23.20925 -74.26800 41082 ft 546 kts 114°
2026-05-07 00:44 23.17364 -74.19509 41087 ft 546 kts 114°
2026-05-07 00:44 23.13802 -74.12230 41086 ft 546 kts 114°
2026-05-07 00:45 23.10238 -74.04948 41083 ft 546 kts 114°
2026-05-07 00:45 23.06664 -73.97673 41083 ft 547 kts 113°
2026-05-07 00:46 23.03087 -73.90389 41081 ft 547 kts 113°
2026-05-07 00:46 22.99502 -73.83108 41083 ft 547 kts 113°
2026-05-07 00:47 22.95918 -73.75833 41084 ft 547 kts 114°
2026-05-07 00:47 22.92329 -73.68562 41085 ft 547 kts 114°
2026-05-07 00:48 22.88731 -73.61279 41087 ft 547 kts 113°
2026-05-07 00:48 22.85141 -73.54028 41078 ft 546 kts 113°
2026-05-07 00:49 22.81551 -73.46786 41081 ft 546 kts 113°
2026-05-07 00:49 22.77955 -73.39541 41081 ft 546 kts 113°
2026-05-07 00:50 22.74358 -73.32305 41081 ft 546 kts 113°
2026-05-07 00:50 22.70756 -73.25068 41088 ft 546 kts 113°
2026-05-07 00:51 22.67146 -73.17830 41087 ft 546 kts 113°
2026-05-07 00:51 22.63553 -73.10631 41087 ft 546 kts 113°
2026-05-07 00:52 22.59937 -73.03399 41089 ft 546 kts 113°
2026-05-07 00:52 22.56315 -72.96165 41089 ft 546 kts 113°
2026-05-07 00:53 22.52690 -72.88933 41089 ft 547 kts 113°
2026-05-07 00:53 22.49059 -72.81703 41090 ft 547 kts 113°
2026-05-07 00:54 22.45438 -72.74498 41081 ft 545 kts 113°
2026-05-07 00:54 22.41809 -72.67294 41081 ft 545 kts 113°
2026-05-07 00:55 22.38204 -72.60142 41093 ft 544 kts 113°
2026-05-07 00:55 22.34568 -72.52937 41092 ft 547 kts 113°
2026-05-07 00:56 22.30916 -72.45719 41094 ft 547 kts 113°
2026-05-07 00:56 22.27270 -72.38515 41096 ft 547 kts 113°
2026-05-07 00:57 22.23616 -72.31312 41092 ft 547 kts 113°
2026-05-07 00:57 22.19962 -72.24113 41090 ft 547 kts 113°
2026-05-07 00:58 22.16296 -72.16904 41090 ft 548 kts 113°
2026-05-07 00:58 22.12628 -72.09699 41091 ft 548 kts 113°
2026-05-07 00:59 22.07122 -71.98904 41079 ft 546 kts 113°
2026-05-07 01:00 22.03484 -71.91781 41078 ft 546 kts 113°
2026-05-07 01:00 21.99809 -71.84598 41090 ft 547 kts 113°
2026-05-07 01:01 21.96129 -71.77417 41098 ft 547 kts 113°
2026-05-07 01:01 21.92451 -71.70246 41095 ft 547 kts 113°
2026-05-07 01:02 21.88763 -71.63067 41095 ft 547 kts 113°
2026-05-07 01:02 21.85076 -71.55899 41106 ft 547 kts 113°
2026-05-07 01:03 21.81379 -71.48721 41090 ft 548 kts 113°
2026-05-07 01:03 21.77677 -71.41545 41091 ft 548 kts 113°
2026-05-07 01:04 21.73997 -71.34419 41091 ft 548 kts 113°
2026-05-07 01:04 21.70290 -71.27252 41091 ft 548 kts 113°
2026-05-07 01:05 21.66591 -71.20100 41083 ft 546 kts 113°
2026-05-07 01:05 21.62887 -71.12969 41083 ft 546 kts 113°
2026-05-07 01:06 21.59186 -71.05836 41081 ft 546 kts 113°
2026-05-07 01:06 21.54688 -70.99157 41083 ft 558 kts 126°
2026-05-07 01:07 21.49493 -70.92952 41100 ft 558 kts 126°
2026-05-07 01:07 21.44493 -70.86596 41095 ft 559 kts 126°
2026-05-07 01:08 21.39340 -70.80331 41088 ft 559 kts 126°
2026-05-07 01:08 21.34271 -70.74001 41091 ft 559 kts 126°
2026-05-07 01:09 21.29189 -70.67768 41073 ft 557 kts 126°
2026-05-07 01:09 21.24119 -70.61497 41075 ft 556 kts 126°
2026-05-07 01:10 21.19028 -70.55239 41075 ft 557 kts 126°
2026-05-07 01:10 21.13946 -70.48985 41093 ft 556 kts 126°
2026-05-07 01:11 21.08858 -70.42735 41088 ft 557 kts 126°
2026-05-07 01:11 21.03767 -70.36489 41090 ft 557 kts 126°
2026-05-07 01:12 20.98677 -70.30250 41096 ft 557 kts 126°
2026-05-07 01:12 20.93578 -70.24009 41082 ft 556 kts 126°
2026-05-07 01:13 20.88512 -70.17808 41095 ft 552 kts 127°
2026-05-07 01:13 20.83452 -70.11631 41094 ft 552 kts 127°
2026-05-07 01:14 20.78387 -70.05449 41096 ft 552 kts 127°
2026-05-07 01:14 20.73323 -69.99278 41097 ft 552 kts 127°
2026-05-07 01:15 20.68253 -69.93105 41094 ft 553 kts 127°
2026-05-07 01:15 20.63183 -69.86939 41099 ft 553 kts 127°
2026-05-07 01:16 20.58126 -69.80794 41093 ft 551 kts 127°
2026-05-07 01:16 20.53077 -69.74668 41083 ft 549 kts 127°
2026-05-07 01:17 20.48038 -69.68559 41083 ft 549 kts 127°
2026-05-07 01:17 20.43024 -69.62488 41086 ft 549 kts 127°
2026-05-07 01:18 20.37976 -69.56381 41083 ft 549 kts 127°
2026-05-07 01:18 20.32921 -69.50274 41103 ft 547 kts 128°
2026-05-07 01:19 20.27878 -69.44187 41100 ft 547 kts 128°
2026-05-07 01:19 20.22837 -69.38109 41103 ft 548 kts 128°
2026-05-07 01:20 20.17791 -69.32031 41100 ft 547 kts 128°
2026-05-07 01:20 20.12734 -69.25947 41101 ft 547 kts 128°
2026-05-07 01:21 20.08539 -69.20905 41102 ft 548 kts 128°
2026-05-07 01:21 20.02675 -69.13863 41099 ft 546 kts 128°
2026-05-07 01:22 19.98452 -69.08798 41100 ft 546 kts 128°
2026-05-07 01:22 19.93441 -69.02793 41100 ft 546 kts 128°
2026-05-07 01:23 19.88399 -68.96757 41100 ft 546 kts 128°
2026-05-07 01:23 19.83518 -68.90576 41077 ft 545 kts 125°
2026-05-07 01:24 19.78764 -68.84339 41105 ft 542 kts 126°
2026-05-07 01:24 19.74002 -68.78146 41105 ft 541 kts 126°
2026-05-07 01:25 19.69256 -68.71944 41108 ft 542 kts 126°
2026-05-07 01:25 19.64487 -68.65745 41103 ft 542 kts 126°
2026-05-07 01:26 19.59728 -68.59547 41105 ft 542 kts 126°
2026-05-07 01:26 19.54960 -68.53357 41108 ft 542 kts 126°
2026-05-07 01:27 19.50241 -68.47225 41102 ft 540 kts 126°
2026-05-07 01:27 19.45485 -68.41061 41091 ft 539 kts 126°
2026-05-07 01:28 19.40742 -68.34914 41097 ft 538 kts 126°
2026-05-07 01:28 19.35999 -68.28778 41098 ft 538 kts 127°
2026-05-07 01:29 19.31253 -68.22641 41098 ft 538 kts 127°
2026-05-07 01:29 19.26510 -68.16515 41111 ft 536 kts 127°
2026-05-07 01:30 19.21772 -68.10402 41112 ft 537 kts 127°
2026-05-07 01:30 19.17032 -68.04292 41112 ft 537 kts 127°
2026-05-07 01:31 19.12289 -67.98185 41112 ft 537 kts 127°
2026-05-07 01:31 19.07551 -67.92090 41101 ft 537 kts 127°
2026-05-07 01:32 19.02807 -67.85993 41099 ft 537 kts 127°
2026-05-07 01:32 18.98060 -67.79898 41099 ft 537 kts 127°
2026-05-07 01:33 18.93308 -67.73803 41100 ft 539 kts 127°
2026-05-07 01:33 18.88519 -67.67663 41108 ft 544 kts 127°
2026-05-07 01:34 18.83697 -67.61496 41109 ft 545 kts 127°
2026-05-07 01:34 18.78885 -67.55337 41110 ft 548 kts 127°
2026-05-07 01:35 18.74025 -67.49132 41106 ft 548 kts 128°
2026-05-07 01:35 18.69168 -67.42931 41098 ft 549 kts 128°
2026-05-07 01:36 18.64292 -67.36718 41100 ft 549 kts 128°
2026-05-07 01:36 18.59417 -67.30507 41106 ft 549 kts 128°
2026-05-07 01:37 18.54546 -67.24309 41111 ft 549 kts 128°
2026-05-07 01:37 18.49699 -67.18147 41124 ft 549 kts 129°
2026-05-07 01:38 18.44603 -67.12147 41118 ft 549 kts 132°
2026-05-07 01:38 18.39449 -67.06203 41117 ft 549 kts 131°
2026-05-07 01:39 18.34296 -67.00233 41116 ft 550 kts 132°
2026-05-07 01:39 18.29143 -66.94298 41104 ft 549 kts 132°
2026-05-07 01:40 18.23996 -66.88350 41114 ft 549 kts 133°
2026-05-07 01:40 18.18838 -66.82416 41114 ft 549 kts 133°
2026-05-07 01:41 18.13688 -66.76481 41111 ft 549 kts 133°
2026-05-07 01:41 18.08533 -66.70556 41108 ft 549 kts 133°
2026-05-07 01:42 18.03407 -66.64663 41109 ft 549 kts 133°
2026-05-07 01:42 17.98248 -66.58743 41109 ft 549 kts 133°
2026-05-07 01:43 17.93080 -66.52812 41110 ft 551 kts 135°
2026-05-07 01:43 17.87909 -66.46887 41095 ft 548 kts 134°
2026-05-07 01:44 17.82738 -66.40966 41098 ft 550 kts 135°
2026-05-07 01:44 17.77559 -66.35045 41093 ft 550 kts 135°
2026-05-07 01:45 17.72380 -66.29128 41096 ft 551 kts 135°
2026-05-07 01:45 17.67198 -66.23213 41096 ft 549 kts 135°
2026-05-07 01:46 17.62021 -66.17310 41099 ft 549 kts 135°
2026-05-07 01:46 17.56854 -66.11419 41094 ft 548 kts 135°
2026-05-07 01:47 17.51688 -66.05540 41094 ft 548 kts 135°
2026-05-07 01:47 17.46521 -65.99664 41094 ft 548 kts 135°
2026-05-07 01:48 17.41349 -65.93787 41091 ft 548 kts 135°
2026-05-07 01:48 17.36222 -65.87965 41097 ft 547 kts 136°
2026-05-07 01:49 17.31066 -65.82117 41098 ft 546 kts 136°
2026-05-07 01:49 17.25910 -65.76273 41096 ft 547 kts 136°
2026-05-07 01:50 17.20752 -65.70432 41087 ft 546 kts 136°
2026-05-07 01:50 17.15592 -65.64594 41091 ft 546 kts 136°
2026-05-07 01:51 17.10435 -65.58764 41085 ft 544 kts 136°
2026-05-07 01:51 17.05286 -65.52963 41097 ft 544 kts 136°
2026-05-07 01:52 17.00092 -65.47204 41145 ft 545 kts 137°
2026-05-07 01:52 16.94808 -65.41530 41218 ft 545 kts 138°
2026-05-07 01:53 16.89380 -65.36012 41319 ft 544 kts 140°
2026-05-07 01:53 16.83756 -65.30721 41398 ft 544 kts 143°
2026-05-07 01:54 16.78005 -65.25717 41357 ft 545 kts 141°
2026-05-07 01:54 16.75371 -65.22870 41084 ft 543 kts 136°
2026-05-07 01:54 16.72902 -65.19898 41095 ft 542 kts 134°
2026-05-07 01:55 16.67829 -65.14077 41099 ft 539 kts 137°
2026-05-07 01:55 16.62739 -65.08320 41099 ft 541 kts 135°
2026-05-07 01:56 16.57688 -65.02501 41103 ft 541 kts 137°
2026-05-07 01:56 16.52582 -64.96737 41093 ft 541 kts 136°
2026-05-07 01:57 16.47522 -64.90932 41094 ft 541 kts 137°
2026-05-07 01:57 16.42423 -64.85164 41095 ft 541 kts 136°
2026-05-07 01:58 16.37351 -64.79375 41088 ft 541 kts 136°
2026-05-07 01:58 16.32258 -64.73607 41089 ft 541 kts 136°
2026-05-07 01:59 16.27208 -64.67866 41089 ft 541 kts 136°
2026-05-07 01:59 16.22118 -64.62101 41089 ft 541 kts 136°
2026-05-07 02:00 16.17030 -64.56331 41089 ft 541 kts 137°
2026-05-07 02:00 16.11935 -64.50567 41089 ft 541 kts 137°
2026-05-07 02:01 16.06829 -64.44789 41089 ft 543 kts 137°
2026-05-07 02:01 16.01720 -64.39016 41089 ft 542 kts 137°
2026-05-07 02:02 15.96603 -64.33238 41087 ft 543 kts 137°
2026-05-07 02:02 15.91525 -64.27508 41087 ft 543 kts 137°
2026-05-07 02:03 15.86409 -64.21739 41084 ft 543 kts 137°
2026-05-07 02:03 15.81295 -64.15979 41085 ft 543 kts 137°
2026-05-07 02:04 15.76193 -64.10225 41085 ft 542 kts 137°
2026-05-07 02:04 15.71076 -64.04483 41080 ft 542 kts 138°
2026-05-07 02:05 15.65964 -63.98730 41078 ft 542 kts 138°
2026-05-07 02:05 15.60844 -63.92987 41079 ft 542 kts 138°
2026-05-07 02:06 15.55726 -63.87242 41079 ft 542 kts 138°
2026-05-07 02:06 15.50605 -63.81503 41076 ft 542 kts 138°
2026-05-07 02:07 15.45488 -63.75769 41075 ft 542 kts 138°
2026-05-07 02:07 15.37844 -63.67215 41082 ft 541 kts 138°
2026-05-07 02:08 15.35009 -63.64723 41023 ft 526 kts 153°
2026-05-07 02:08 15.31796 -63.62989 41083 ft 519 kts 161°
2026-05-07 02:08 15.25111 -63.60227 41095 ft 516 kts 165°
2026-05-07 02:09 15.18555 -63.57060 41094 ft 523 kts 157°
2026-05-07 02:09 15.12127 -63.53541 41090 ft 520 kts 160°
2026-05-07 02:10 15.06660 -63.50938 41088 ft 521 kts 160°
2026-05-07 02:10 15.00193 -63.47529 41080 ft 521 kts 159°
2026-05-07 02:11 14.93666 -63.44280 41080 ft 521 kts 160°
2026-05-07 02:11 14.87171 -63.40943 41081 ft 521 kts 159°
2026-05-07 02:12 14.80658 -63.37655 41075 ft 520 kts 159°
2026-05-07 02:12 14.74161 -63.34351 41076 ft 521 kts 159°
2026-05-07 02:13 14.67658 -63.31056 41063 ft 520 kts 159°
2026-05-07 02:13 14.61144 -63.27755 41075 ft 521 kts 159°
2026-05-07 02:14 14.54680 -63.24481 41080 ft 521 kts 159°
2026-05-07 02:14 14.48168 -63.21187 41080 ft 521 kts 159°
2026-05-07 02:15 14.41669 -63.17897 41075 ft 520 kts 159°
2026-05-07 02:15 14.35163 -63.14613 41075 ft 520 kts 159°
2026-05-07 02:16 14.28663 -63.11328 41069 ft 520 kts 158°
2026-05-07 02:16 14.22163 -63.08050 41069 ft 520 kts 158°
2026-05-07 02:17 14.15668 -63.04772 41073 ft 520 kts 158°
2026-05-07 02:17 14.09169 -63.01497 41068 ft 520 kts 158°
2026-05-07 02:18 14.02668 -62.98222 41071 ft 520 kts 158°
2026-05-07 02:18 13.96179 -62.94955 41065 ft 519 kts 158°
2026-05-07 02:19 13.89688 -62.91690 41066 ft 519 kts 158°
2026-05-07 02:19 13.86442 -62.90058 40713 ft 523 kts 158°
2026-05-07 02:19 13.83175 -62.88414 40014 ft 521 kts 158°
2026-05-07 02:20 13.79921 -62.86776 39329 ft 522 kts 158°
2026-05-07 02:20 13.76657 -62.85137 38625 ft 523 kts 158°
2026-05-07 02:20 13.73386 -62.83496 37908 ft 523 kts 158°
2026-05-07 02:20 13.70106 -62.81850 37219 ft 525 kts 158°
2026-05-07 02:21 13.66810 -62.80195 36525 ft 527 kts 158°
2026-05-07 02:21 13.63509 -62.78538 35830 ft 529 kts 157°
2026-05-07 02:21 13.60197 -62.76877 35131 ft 530 kts 157°
2026-05-07 02:21 13.56877 -62.75213 34430 ft 532 kts 157°
2026-05-07 02:22 13.53590 -62.73564 33696 ft 534 kts 157°
2026-05-07 02:22 13.50242 -62.71887 32989 ft 536 kts 157°
2026-05-07 02:22 13.46879 -62.70203 32283 ft 539 kts 156°
2026-05-07 02:22 13.43495 -62.68508 31569 ft 542 kts 156°
2026-05-07 02:23 13.40091 -62.66803 30854 ft 545 kts 156°
2026-05-07 02:23 13.36666 -62.65089 30127 ft 548 kts 156°
2026-05-07 02:23 13.33231 -62.63370 29362 ft 550 kts 156°
2026-05-07 02:23 13.29776 -62.61642 28629 ft 551 kts 156°
2026-05-07 02:24 13.26364 -62.59934 27908 ft 548 kts 156°
2026-05-07 02:24 13.22987 -62.58245 27196 ft 540 kts 155°
2026-05-07 02:24 13.19642 -62.56575 26494 ft 532 kts 155°
2026-05-07 02:24 13.16327 -62.54919 25792 ft 525 kts 155°
2026-05-07 02:25 13.13040 -62.53278 25098 ft 520 kts 155°
2026-05-07 02:25 13.09779 -62.51649 24411 ft 513 kts 155°
2026-05-07 02:25 13.06550 -62.50037 23732 ft 512 kts 155°
2026-05-07 02:25 13.03356 -62.48445 23004 ft 505 kts 154°
2026-05-07 02:26 13.00205 -62.46873 22342 ft 508 kts 154°
2026-05-07 02:26 12.97090 -62.45320 21684 ft 499 kts 154°
2026-05-07 02:26 12.94012 -62.43785 21031 ft 476 kts 153°
2026-05-07 02:26 12.91176 -62.42373 20434 ft 444 kts 153°
2026-05-07 02:27 12.88479 -62.41029 19867 ft 423 kts 153°
2026-05-07 02:27 12.85857 -62.39721 19318 ft 417 kts 152°
2026-05-07 02:27 12.83261 -62.38428 18774 ft 411 kts 152°
2026-05-07 02:27 12.80703 -62.37155 18216 ft 408 kts 152°
2026-05-07 02:28 12.78167 -62.35892 17659 ft 403 kts 152°
2026-05-07 02:28 12.75654 -62.34641 17131 ft 399 kts 152°
2026-05-07 02:28 12.73163 -62.33401 16574 ft 397 kts 152°
2026-05-07 02:28 12.70688 -62.32171 16014 ft 394 kts 152°
2026-05-07 02:29 12.68235 -62.30950 15500 ft 390 kts 152°
2026-05-07 02:29 12.65797 -62.29738 14975 ft 388 kts 152°
2026-05-07 02:29 12.63381 -62.28537 14473 ft 385 kts 151°
2026-05-07 02:29 12.60980 -62.27343 13966 ft 382 kts 151°
2026-05-07 02:30 12.58602 -62.26161 13434 ft 377 kts 151°
2026-05-07 02:30 12.56250 -62.24993 12936 ft 374 kts 151°
2026-05-07 02:30 12.53927 -62.23839 12445 ft 368 kts 152°
2026-05-07 02:30 12.51634 -62.22700 11960 ft 364 kts 152°
2026-05-07 02:31 12.49396 -62.21588 11485 ft 360 kts 152°
2026-05-07 02:31 12.47199 -62.20499 11016 ft 339 kts 151°
2026-05-07 02:31 12.45211 -62.19517 10609 ft 305 kts 152°
2026-05-07 02:31 12.43325 -62.18577 10193 ft 296 kts 152°
2026-05-07 02:32 12.41496 -62.17666 9790 ft 287 kts 152°
2026-05-07 02:32 12.39718 -62.16784 9403 ft 282 kts 152°
2026-05-07 02:32 12.37969 -62.15918 9034 ft 277 kts 152°
2026-05-07 02:32 12.36241 -62.15060 8673 ft 275 kts 152°
2026-05-07 02:33 12.34524 -62.14205 8316 ft 273 kts 152°
2026-05-07 02:33 12.32838 -62.13351 8389 ft 273 kts 151°
2026-05-07 02:33 12.31115 -62.12476 8397 ft 278 kts 152°
2026-05-07 02:33 12.29392 -62.11608 8400 ft 278 kts 152°
2026-05-07 02:34 12.27647 -62.10729 8387 ft 280 kts 152°
2026-05-07 02:34 12.25904 -62.09850 8258 ft 279 kts 152°
2026-05-07 02:34 12.24172 -62.08976 8142 ft 277 kts 152°
2026-05-07 02:34 12.22470 -62.08118 8020 ft 275 kts 152°
2026-05-07 02:35 12.20745 -62.07248 8000 ft 276 kts 152°
2026-05-07 02:35 12.19015 -62.06376 8001 ft 277 kts 152°
2026-05-07 02:35 12.17285 -62.05504 8002 ft 277 kts 152°
2026-05-07 02:35 12.15557 -62.04633 8007 ft 277 kts 152°
2026-05-07 02:36 12.13837 -62.03767 8008 ft 276 kts 152°
2026-05-07 02:36 12.12103 -62.02893 8009 ft 278 kts 152°
2026-05-07 02:36 12.10375 -62.02023 8009 ft 275 kts 152°
2026-05-07 02:36 12.08654 -62.01156 8009 ft 275 kts 152°
2026-05-07 02:37 12.06931 -62.00288 8003 ft 278 kts 152°
2026-05-07 02:37 12.05185 -61.99409 7617 ft 282 kts 152°
2026-05-07 02:37 12.03495 -61.98560 6979 ft 252 kts 152°
2026-05-07 02:37 12.02042 -61.97781 6334 ft 226 kts 145°
2026-05-07 02:38 12.00991 -61.96631 5612 ft 221 kts 120°
2026-05-07 02:38 12.00493 -61.95085 4943 ft 237 kts 96°
2026-05-07 02:38 12.00472 -61.93402 4310 ft 228 kts 90°
2026-05-07 02:38 12.00477 -61.91916 3701 ft 192 kts 90°
2026-05-07 02:39 12.00469 -61.90651 3034 ft 165 kts 90°
2026-05-07 02:39 12.00461 -61.89487 2338 ft 164 kts 90°
2026-05-07 02:39 12.00455 -61.88366 1697 ft 148 kts 90°
2026-05-07 02:39 12.00446 -61.87429 1445 ft 121 kts 90°
2026-05-07 02:40 12.00428 -61.86558 1342 ft 127 kts 91°
2026-05-07 02:40 12.00411 -61.85636 1230 ft 129 kts 91°
2026-05-07 02:40 12.00434 -61.84715 1022 ft 132 kts 89°
2026-05-07 02:40 12.00444 -61.83782 870 ft 130 kts 89°
2026-05-07 02:41 12.00413 -61.82863 649 ft 129 kts 88°
2026-05-07 02:41 12.00415 -61.81947 489 ft 129 kts 88°
2026-05-07 02:41 12.00419 -61.81041 317 ft 126 kts 90°
2026-05-07 02:41 12.00412 -61.80161 134 ft 122 kts 89°
2026-05-07 02:42 12.00411 -61.79318 41 ft 110 kts 90°
2026-05-07 02:42 12.00407 -61.78681 38 ft 60 kts 91°
2026-05-07 02:42 12.00408 -61.78397 36 ft 19 kts 81°
2026-05-07 02:42 12.00399 -61.78364 35 ft 9 kts 268°
2026-05-07 02:43 12.00404 -61.78440 37 ft 13 kts 273°
2026-05-07 02:43 12.00408 -61.78556 38 ft 15 kts 273°
2026-05-07 02:43 12.00476 -61.78597 39 ft 12 kts
2026-05-07 02:43 12.00544 -61.78596 40 ft 2 kts 359°
2026-05-07 02:44 12.00547 -61.78596 40 ft 0 kts 359°
2026-05-07 02:44 12.00550 -61.78597 40 ft 3 kts 352°
2026-05-07 02:44 12.00572 -61.78640 41 ft 12 kts 274°
2026-05-07 02:44 12.00579 -61.78732 41 ft 12 kts 302°
2026-05-07 02:45 12.00576 -61.78765 41 ft 5 kts 127°
2026-05-07 02:45 12.00576 -61.78761 41 ft 0 kts 90°